Waarnemingen

Advertentie
Mijn weer
Rheinstetten, Duitsland (10731): temperatuur & dauwpunt: 21.04.2018 08:00:00 - 27.04.2018 08:00:00 (CEST)Rheinstetten, Duitsland (10731): temperatuur 5cm & temperatuur -5cm: 21.04.2018 08:00:00 - 27.04.2018 08:00:00 (CEST)Rheinstetten, Duitsland (10731): temperatuur -20cm & temperatuur -100cm: 21.04.2018 08:00:00 - 27.04.2018 08:00:00 (CEST)Rheinstetten, Duitsland (10731): windsnelheid & windstoten: 21.04.2018 08:00:00 - 27.04.2018 08:00:00 (CEST)Rheinstetten, Duitsland (10731): windrichting: 21.04.2018 08:00:00 - 27.04.2018 08:00:00 (CEST)Rheinstetten, Duitsland (10731): luchtdruk: 21.04.2018 08:00:00 - 27.04.2018 08:00:00 (CEST)Rheinstetten, Duitsland (10731): zicht: 21.04.2018 08:00:00 - 27.04.2018 08:00:00 (CEST)Rheinstetten, Duitsland (10731): Zonneschijnduur: 21.04.2018 08:00:00 - 27.04.2018 08:00:00 (CEST)Rheinstetten, Duitsland (10731): neerslag: 21.04.2018 08:00:00 - 27.04.2018 08:00:00 (CEST)
Datum & Tijd tt [°C] td [°C] tt 5cm [°C] tt -5cm [°C] tt -20cm [°C] tt -100cm [°C] ff [km/u] ff [kn] fx [km/u] fx [kn] dd ppp [hPa] vv [km] sd [min] rr [mm]
27.04.2018 08:00:00 7,0 3,9 8,9 8,8 12,7 14,5 6 3 8 4 NNO 1015,7 29 57 0,0
27.04.2018 07:00:00 2,8 2,0 2,4 7,9 13,1 14,5 4 2 6 4 ONO 1016,4 22 2 0,0
27.04.2018 06:00:00 2,3 1,6 0,5 8,2 13,6 14,4 4 2 6 3 O 1016,9 22 0 0,0
27.04.2018 05:00:00 2,8 2,2 1,7 8,8 14,1 14,5 5 3 6 3 ZO 1017,9 23 0 0,0
27.04.2018 04:00:00 3,1 2,3 1,4 9,3 14,6 14,5 2 1 4 2 NNW 1018,4 30 0 0,0
27.04.2018 03:00:00 4,2 3,0 1,7 10,0 15,1 14,4 2 1 5 3 ZO 1018,8 40 0 0,0
27.04.2018 02:00:00 5,0 3,6 3,5 10,8 15,6 14,5 3 2 9 5 ZZW 1019,3 38 0 0,0
27.04.2018 01:00:00 5,1 3,4 3,1 11,3 16,2 14,5 5 3 7 4 Z 1019,5 42 0 0,0
27.04.2018 00:00:00 6,6 3,3 3,6 12,2 16,9 14,5 5 3 9 5 ZO 1019,6 51 0 0,0
26.04.2018 23:00:00 7,6 4,0 3,9 13,3 17,6 14,5 4 2 9 5 WZW 1019,8 58 0 0,0
26.04.2018 22:00:00 8,5 3,6 5,1 14,8 18,3 14,5 4 2 8 5 Z 1019,7 55 0 0,0
26.04.2018 21:00:00 9,8 4,7 7,2 16,5 18,9 14,5 6 4 17 9 ZZW 1019,3 49 15 0,0
26.04.2018 20:00:00 13,2 1,6 12,2 18,7 19,4 14,5 12 7 27 15 W 1019,0 70 38 0,0
26.04.2018 19:00:00 14,8 0,4 15,2 21,6 19,5 14,5 19 11 35 19 W 1018,9 34 58 0,0
26.04.2018 18:00:00 15,4 1,0 17,3 23,5 19,3 14,5 20 11 37 20 WZW 1018,9 28 57 0,0
26.04.2018 17:00:00 15,1 1,0 16,3 24,5 18,8 14,5 21 11 37 20 W 1019,3 21 52 0,0
26.04.2018 16:00:00 15,7 2,0 19,1 24,3 18,1 14,5 22 12 46 25 W 1019,4 49 51 0,0
26.04.2018 15:00:00 15,3 3,5 19,2 23,0 17,5 14,5 25 13 42 23 WZW 1019,7 15 37 0,0
26.04.2018 14:00:00 14,4 2,3 17,6 22,6 16,7 14,5 23 13 41 22 W 1019,8 38 43 0,0
26.04.2018 13:00:00 14,7 3,6 18,8 21,7 15,8 14,5 26 14 47 26 WZW 1020,1 37 54 0,0
26.04.2018 12:00:00 13,4 3,8 16,9 18,7 15,1 14,5 23 13 42 23 WZW 1020,4 17 48 0,0
26.04.2018 11:00:00 12,2 5,6 15,4 15,2 14,8 14,5 21 11 37 20 W 1020,3 19 18 0,0
26.04.2018 10:00:00 10,6 4,9 11,3 12,9 14,8 14,5 22 12 40 21 W 1020,3 39 1 0,0
26.04.2018 09:00:00 10,3 4,5 10,4 12,4 15,0 14,5 19 10 37 20 W 1019,9 47 0 0,0
26.04.2018 08:00:00 10,6 5,4 10,3 12,1 15,3 14,5 21 11 35 19 WZW 1019,4 48 42 0,0
26.04.2018 07:00:00 10,3 6,8 9,3 11,9 15,6 14,5 15 8 24 13 WZW 1018,6 41 0 0,0
26.04.2018 06:00:00 10,9 7,2 9,8 12,7 16,0 14,5 15 8 22 12 WZW 1018,2 40 0 0,0
26.04.2018 05:00:00 11,6 9,1 11,0 13,5 16,3 14,5 9 5 15 8 WZW 1017,7 31 0 0,0
26.04.2018 04:00:00 11,9 9,8 11,3 13,8 16,6 14,5 11 6 19 10 ZW 1017,4 28 0 0,0
26.04.2018 03:00:00 11,9 10,4 11,4 14,1 16,9 14,5 7 4 16 9 ZZW 1017,0 30 0 0,0
26.04.2018 02:00:00 12,1 10,2 11,7 14,5 17,3 14,5 11 6 16 8 ZZW 1017,1 36 0 0,0
26.04.2018 01:00:00 11,9 10,3 11,4 14,9 17,8 14,5 9 5 20 11 ZZW 1016,7 36 0 0,0
26.04.2018 00:00:00 12,4 10,0 11,3 15,6 18,3 14,5 14 8 28 15 ZW 1016,3 40 0 0,1
25.04.2018 23:00:00 13,3 9,7 12,9 16,4 18,8 14,5 11 6 34 18 WNW 1016,1 42 0 0,0
25.04.2018 22:00:00 14,0 9,3 12,5 17,0 19,4 14,5 12 7 27 15 NW 1015,3 70 0 0,0
25.04.2018 21:00:00 15,6 10,0 14,3 18,6 20,0 14,5 19 10 39 21 W 1014,1 70 19 0,0
25.04.2018 20:00:00 16,6 10,3 16,8 21,0 20,3 14,6 23 12 45 25 W 1013,2 31 43 0,0
25.04.2018 19:00:00 17,5 10,6 18,7 23,4 20,3 14,6 28 15 49 26 W 1013,3 18 53 0,0
25.04.2018 18:00:00 18,2 9,7 19,4 24,4 20,1 14,6 27 15 48 26 W 1013,3 30 53 0,0
25.04.2018 17:00:00 17,7 10,1 20,3 26,3 19,6 14,6 26 14 44 24 W 1014,0 28 60 0,0
25.04.2018 16:00:00 19,6 9,6 22,2 25,8 18,9 14,6 31 17 50 27 W 1013,9 15 43 0,0
25.04.2018 15:00:00 20,1 9,3 22,7 24,6 18,2 14,6 34 19 52 28 W 1013,7 18 34 0,0
25.04.2018 14:00:00 18,4 9,8 19,2 22,6 17,5 14,6 30 16 49 26 W 1013,8 23 5 0,0
25.04.2018 13:00:00 19,6 9,7 21,8 24,1 16,5 14,6 27 14 42 23 W 1013,3 20 55 0,0
25.04.2018 12:00:00 18,9 9,3 21,2 20,5 15,6 14,6 29 15 58 31 W 1013,6 23 56 0,0
25.04.2018 11:00:00 18,0 10,5 19,1 16,1 15,3 14,6 24 13 42 23 WZW 1013,5 30 5 0,0
25.04.2018 10:00:00 16,8 11,9 17,1 15,7 15,0 14,6 13 7 23 13 ZW 1013,4 27 4 0,0
25.04.2018 09:00:00 14,9 11,2 14,9 14,1 14,9 14,6 13 7 22 12 ZZW 1013,4 19 18 0,0
25.04.2018 08:00:00 14,4 10,6 13,8 13,1 14,9 14,6 14 7 25 14 W 1013,2 22 4 0,0
25.04.2018 07:00:00 13,8 10,3 12,8 12,1 15,1 14,6 13 7 20 11 ZW 1012,6 25 0 0,0
25.04.2018 06:00:00 12,2 9,7 9,8 11,7 15,4 14,6 9 5 20 11 ZW 1012,4 23 0 0,0
25.04.2018 05:00:00 8,9 8,5 6,6 11,6 15,9 14,6 8 4 12 6 ZW 1013,0 15 0 0,0
25.04.2018 04:00:00 8,5 8,2 6,4 12,1 16,3 14,6 4 2 7 4 ZZO 1013,3 11 0 0,0
25.04.2018 03:00:00 10,0 9,8 7,0 12,7 16,8 14,6 5 3 10 6 ZW 1013,6 13 0 0,0
25.04.2018 02:00:00 9,4 9,1 7,0 13,4 17,4 14,6 3 2 5 3 ZW 1013,9 11 0 0,0
25.04.2018 01:00:00 10,5 10,0 7,8 14,2 17,9 14,6 0 0 4 2 N 1014,3 12 0 0,0
25.04.2018 00:00:00 11,2 10,6 8,4 15,1 18,5 14,6 3 2 7 4 Z 1014,7 18 0 0,0
24.04.2018 23:00:00 11,8 10,5 8,9 16,2 19,2 14,6 4 2 7 4 Z 1014,8 23 0 0,0
24.04.2018 22:00:00 13,0 10,9 10,6 17,6 19,8 14,6 4 2 6 4 ZO 1015,2 29 0 0,0
24.04.2018 21:00:00 15,4 11,2 12,7 19,3 20,3 14,7 4 2 10 6 Z 1015,1 34 0 0,0
24.04.2018 20:00:00 18,7 10,5 16,7 21,4 20,6 14,7 8 5 16 9 WZW 1015,0 48 3 0,0
24.04.2018 19:00:00 19,8 11,0 19,3 23,3 20,8 14,7 8 5 24 13 WZW 1015,3 46 35 0,0
24.04.2018 18:00:00 20,3 11,0 21,6 24,8 20,6 14,7 15 8 26 14 ZW 1015,7 41 29 0,0
24.04.2018 17:00:00 20,1 10,2 20,8 26,9 20,1 14,7 16 8 33 18 WZW 1016,4 23 53 0,0
24.04.2018 16:00:00 20,5 10,8 22,6 26,8 19,3 14,7 15 8 32 18 WZW 1017,3 32 59 0,0
24.04.2018 15:00:00 20,4 11,1 23,9 26,3 18,3 14,8 16 8 30 16 WZW 1018,1 29 57 0,0
24.04.2018 14:00:00 19,4 10,3 22,6 23,1 17,6 14,8 16 9 33 18 W 1018,6 23 42 0,0
24.04.2018 13:00:00 18,7 10,9 21,3 22,1 16,9 14,8 17 9 32 18 W 1019,1 26 58 0,0
24.04.2018 12:00:00 17,9 10,4 20,6 20,5 16,2 14,8 18 10 34 18 WZW 1019,5 17 60 0,0
24.04.2018 11:00:00 16,8 11,9 18,9 18,8 15,5 14,8 18 10 27 14 WZW 1019,8 20 59 0,0
24.04.2018 10:00:00 15,7 12,8 17,6 16,5 15,1 14,8 16 8 23 13 W 1019,7 10 54 0,0
24.04.2018 09:00:00 14,3 13,2 15,2 14,4 14,9 14,8 15 8 22 12 WZW 1019,7 7 13 0,0
24.04.2018 08:00:00 12,6 12,3 12,7 12,5 15,0 14,8 6 3 9 5 WZW 1019,8 3,4 33 0,0
24.04.2018 07:00:00 11,2 11,2 9,0 11,8 15,2 14,8 6 3 9 5 WZW 1019,7 2,7 0 0,0
24.04.2018 06:00:00 10,4 10,4 8,9 11,8 15,6 14,8 4 2 6 3 Z 1019,5 0,4 0 0,0
24.04.2018 05:00:00 10,6 10,5 7,4 12,2 15,9 14,8 4 2 6 3 Z 1019,6 3,7 0 0,0
24.04.2018 04:00:00 12,0 11,8 8,7 12,9 16,2 14,8 4 2 12 6 ZW 1019,6 5 0 0,0
24.04.2018 03:00:00 13,1 12,2 11,5 13,7 16,5 14,8 9 5 18 10 ZW 1019,2 12 0 0,0
24.04.2018 02:00:00 14,4 12,8 13,8 14,1 16,8 14,8 13 7 22 12 WZW 1019,3 21 0 0,0
24.04.2018 01:00:00 14,7 12,6 13,6 14,2 17,1 14,7 16 9 23 13 ZW 1019,2 25 0 0,0
24.04.2018 00:00:00 14,7 12,6 13,3 14,5 17,5 14,7 18 10 26 14 ZW 1018,8 30 0 0,0
23.04.2018 23:00:00 15,2 12,7 14,4 15,1 17,9 14,7 16 9 28 15 ZW 1018,6 35 0 0,0
23.04.2018 22:00:00 15,1 12,8 14,0 15,5 18,3 14,7 18 10 29 16 ZW 1018,2 31 0 0,0
23.04.2018 21:00:00 15,3 12,7 14,1 16,2 18,7 14,7 14 8 25 14 WZW 1017,9 34 0 0,0
23.04.2018 20:00:00 16,3 13,0 15,5 17,4 19,0 14,7 16 9 38 21 WZW 1017,2 38 3 0,0
23.04.2018 19:00:00 16,9 13,0 16,8 18,4 19,4 14,7 30 16 45 24 ZW 1016,8 30 0 0,0
23.04.2018 18:00:00 17,4 13,2 17,4 19,2 19,6 14,7 29 15 46 25 ZW 1017,0 36 0 0,0
23.04.2018 17:00:00 18,7 13,5 19,2 21,0 19,5 14,7 25 14 42 23 ZW 1016,3 35 15 0,0
23.04.2018 16:00:00 19,9 14,5 22,0 23,1 19,1 14,7 26 14 38 20 ZW 1016,2 14 60 0,0
23.04.2018 15:00:00 19,0 15,2 21,9 21,4 18,8 14,6 23 13 42 23 ZW 1017,1 14 31 0,0
23.04.2018 14:00:00 18,0 13,9 18,4 19,5 18,6 14,6 24 13 37 20 ZW 1017,3 32 0 0,0
23.04.2018 13:00:00 18,2 14,2 18,4 20,9 18,3 14,6 22 12 30 16 ZW 1017,3 25 13 0,0
23.04.2018 12:00:00 17,9 15,1 18,4 19,5 18,0 14,6 14 8 23 12 ZW 1017,1 14 3 0,4
23.04.2018 11:00:00 15,9 14,3 15,6 17,1 18,0 14,5 12 6 25 13 ZW 1017,3 13 0 0,3
23.04.2018 10:00:00 14,8 13,5 14,2 16,4 18,2 14,5 16 9 27 15 Z 1017,2 9 0 4,1
23.04.2018 09:00:00 16,7 11,5 14,0 17,3 18,3 14,5 17 9 27 15 ZW 1016,7 5 0 0,0
23.04.2018 08:00:00 16,1 10,7 15,7 16,6 18,5 14,4 8 4 18 10 WZW 1015,3 34 0 0,0
23.04.2018 07:00:00 14,2 10,0 11,8 16,0 18,9 14,4 4 2 10 5 ZW 1014,8 36 0 0,0
23.04.2018 06:00:00 14,8 9,9 12,0 16,4 19,3 14,4 5 3 11 6 ZW 1014,7 40 0 0,0
23.04.2018 05:00:00 15,3 9,2 13,1 16,9 19,7 14,4 9 5 12 6 ZW 1014,8 44 0 0,0
23.04.2018 04:00:00 15,5 9,6 12,8 17,4 20,1 14,3 5 3 9 5 ZZW 1014,6 47 0 0,0
23.04.2018 03:00:00 14,3 10,2 12,2 18,0 20,6 14,3 5 3 6 3 ZZW 1014,4 49 0 0,0
23.04.2018 02:00:00 16,2 9,6 13,6 18,9 21,1 14,3 5 3 6 3 Z 1014,5 53 0 0,0
23.04.2018 01:00:00 16,4 9,7 14,3 19,4 21,6 14,2 4 2 8 4 ZZW 1014,5 46 0 0,0
23.04.2018 00:00:00 18,3 8,2 14,3 20,1 22,2 14,2 5 3 12 6 ZZW 1014,2 49 0 0,0
22.04.2018 23:00:00 19,3 9,6 15,3 21,1 22,9 14,2 8 4 18 10 ZW 1013,8 52 0 0,0
22.04.2018 22:00:00 20,5 8,1 16,2 22,2 23,6 14,2 8 5 18 10 ZW 1013,4 58 0 0,0
22.04.2018 21:00:00 21,8 7,9 18,6 23,9 24,2 14,2 10 5 16 8 ZZW 1012,8 59 0 0,0
22.04.2018 20:00:00 24,4 6,8 22,4 26,1 24,8 14,2 12 6 23 12 WZW 1012,1 65 0 0,0
22.04.2018 19:00:00 25,4 7,1 23,7 28,3 25,1 14,2 16 8 29 15 W 1011,6 54 6 0,0
22.04.2018 18:00:00 26,8 10,2 26,7 31,5 24,9 14,2 16 9 27 14 W 1011,4 42 58 0,0
22.04.2018 17:00:00 27,5 11,7 29,9 33,3 24,3 14,1 16 8 27 15 ZW 1011,6 27 59 0,0
22.04.2018 16:00:00 27,5 10,3 29,7 34,1 23,4 14,1 16 9 27 14 ZW 1012,4 27 60 0,0
22.04.2018 15:00:00 27,5 11,8 30,3 33,9 22,2 14,1 11 6 20 11 ZW 1013,2 26 60 0,0
22.04.2018 14:00:00 26,5 14,8 31,2 31,9 20,8 14,1 9 5 19 10 ZZW 1013,8 28 60 0,0
22.04.2018 13:00:00 25,0 11,8 28,3 29,2 19,6 14,0 14 7 19 11 ZW 1014,4 27 60 0,0
22.04.2018 12:00:00 23,2 11,8 26,1 25,8 18,5 14,0 13 7 22 12 ZW 1015,2 19 60 0,0
22.04.2018 11:00:00 20,9 12,8 23,4 22,4 17,7 14,0 16 8 22 12 ZW 1015,6 20 60 0,0
22.04.2018 10:00:00 18,7 12,3 21,0 19,2 17,2 13,9 15 8 21 11 ZW 1015,9 15 60 0,0
22.04.2018 09:00:00 16,5 12,0 18,1 16,3 17,1 13,9 8 4 13 7 WZW 1015,8 11 60 0,0
22.04.2018 08:00:00 12,8 11,1 13,9 14,3 17,4 13,9 7 4 10 5 ZZW 1016,0 8 49 0,0
22.04.2018 07:00:00 9,6 9,2 7,9 13,8 17,9 13,8 4 2 6 3 Z 1015,7 8 0 0,0
22.04.2018 06:00:00 10,0 9,2 7,6 14,4 18,4 13,8 4 2 6 3 ZZO 1015,3 9 0 0,0
22.04.2018 05:00:00 10,7 10,4 8,5 15,1 18,9 13,8 5 3 9 5 ZZW 1015,9 4,8 0 0,0
22.04.2018 04:00:00 11,6 9,9 9,5 15,8 19,5 13,7 3 2 8 4 ONO 1016,0 12 0 0,0
22.04.2018 03:00:00 12,7 10,6 10,6 16,6 20,1 13,7 3 2 6 4 N 1016,0 12 0 0,0
22.04.2018 02:00:00 13,9 10,9 10,7 17,4 20,7 13,7 6 3 9 5 NNO 1016,6 14 0 0,0
22.04.2018 01:00:00 12,8 10,7 10,7 18,3 21,4 13,7 4 2 5 3 NNO 1017,0 14 0 0,0
22.04.2018 00:00:00 13,8 11,0 11,7 19,5 22,2 13,7 5 3 6 3 OZO 1017,1 17 0 0,0
21.04.2018 23:00:00 14,9 11,4 12,2 20,8 23,0 13,6 0 0 5 3 N 1016,8 22 0 0,0
21.04.2018 22:00:00 16,6 11,6 14,0 22,5 23,8 13,6 5 3 6 3 ZO 1016,9 28 0 0,0
21.04.2018 21:00:00 18,9 11,4 16,0 24,7 24,5 13,6 5 3 12 6 NO 1016,6 30 0 0,0
21.04.2018 20:00:00 23,9 9,2 20,7 27,5 24,9 13,6 9 5 17 9 NNO 1016,2 39 33 0,0
21.04.2018 19:00:00 25,8 10,0 27,2 31,0 24,9 13,6 10 5 15 8 N 1016,2 49 60 0,0
21.04.2018 18:00:00 27,3 8,8 29,7 33,2 24,5 13,6 5 3 14 8 ZZO 1016,4 53 60 0,0
21.04.2018 17:00:00 28,5 8,2 31,2 34,1 23,8 13,6 4 2 13 7 ZW 1016,9 40 60 0,0
21.04.2018 16:00:00 27,7 10,3 31,6 34,3 22,8 13,5 5 3 16 9 NW 1017,5 35 60 0,0
21.04.2018 15:00:00 27,3 11,1 32,4 33,3 21,5 13,5 7 4 15 8 NNW 1018,4 19 60 0,0
21.04.2018 14:00:00 26,4 11,9 32,7 31,8 20,1 13,5 7 4 11 6 N 1019,0 23 60 0,0
21.04.2018 13:00:00 25,5 11,5 30,2 29,2 18,7 13,5 2 1 9 5 ZW 1019,7 29 60 0,0
21.04.2018 12:00:00 22,7 12,5 26,5 25,7 17,5 13,4 4 2 8 4 Z 1020,4 21 60 0,0
21.04.2018 11:00:00 19,9 10,7 23,1 21,8 16,6 13,4 6 3 10 5 Z 1020,8 16 60 0,0
21.04.2018 10:00:00 17,9 11,2 20,8 18,3 16,1 13,4 7 4 11 6 ZZW 1021,0 15 60 0,0
21.04.2018 09:00:00 15,5 10,0 17,1 15,1 16,0 13,3 5 3 7 4 ZW 1021,0 26 60 0,0
21.04.2018 08:00:00 11,6 9,3 12,2 13,1 16,3 13,3 3 2 6 3 ZZO 1020,8 16 46 0,0

tt = temperatuur
td = dauwpunt
tt 5cm = temperatuur 5cm
tt -5cm = temperatuur -5cm
tt -20cm = temperatuur -20cm
tt -100cm = temperatuur -100cm
ff = windsnelheid
fx = windstoten
dd = windrichting
ppp = luchtdruk
vv = zicht
sd = Zonneschijnduur
rr = neerslag

Weerstations in de omgeving